Location: Gand�
(15.0971°N, 12.6564°W)
Time: 14:02:55
(UTC+00:00)

Cosmos 1455 - Pass Details

Date: 07 August 2020
Orbit: 498 x 523 km, 82.5° (Epoch: 19 September)

Event Time Altitude Azimuth Distance (km) Brightness Sun altitude
Rises 05:47:17 0° 175° (S) 2,614 5.6 -11.7°
Reaches altitude 10° 05:49:26 10° 170° (S) 1,733 4.8 -11.2°
Maximum altitude 05:53:08 51° 93° (E) 650 3.1 -10.3°
Drops below altitude 10° 05:56:52 10° 17° (NNE) 1,748 5.4 -9.5°
Sets 05:59:03 0° 12° (NNE) 2,639 6.3 -9.0°
